カタログに戻る

STARLINK-37262

運用中通信VLEO
NORAD 68508·PAYLOAD·🇺🇸 United States

打ち上げ Mar 30, 2026 から Cape Canaveral Space Force Station

Loading…

次のパス (今後24時間)

TLE

最新Source: CelesTrak SupGP

元期: Sep 15, 2026, 03:59 UTC

1 68508C 26068A   26258.16645833  .00032050  00000+0  94641-3 0  2582
2 68508  53.1589 318.9906 0001301  87.3996   7.3700 15.34391700    14

AllMySatでSTARLINK-37262をリアルタイム追跡

Download on the App Store